FW2445 Weather Reports


Display with metric or nautical units.
time (UTC)temp
F
wind
direction
speed
MPH
gust
MPH
rain 1hr
in
rain 24hr
in
rain mn
in
humidity
%
barometer
mb
20260505021516 67 26 0.0 0.0 0.00 0.00 0.00 68 1006.5
20260505020014 68 26 0.0 0.0 0.00 0.00 0.00 67 1006.3
20260505014515 69 26 0.0 0.0 0.00 0.00 0.00 66 1006.2
20260505013014 70 26 0.0 0.0 0.00 0.00 0.00 66 1006.1
20260505011514 71 26 0.0 0.0 0.00 0.00 0.00 65 1005.9
20260505010013 71 26 0.0 0.0 0.00 0.00 0.00 62 1005.9
20260505004519 72 26 0.0 0.0 0.00 0.00 0.00 60 1005.9
20260505003013 73 26 0.0 0.0 0.00 0.00 0.00 58 1005.8
20260505001513 74 359 0.0 0.0 0.00 0.00 0.00 57 1006.0
20260505000020 74 56 0.0 0.0 0.00 0.00 0.00 59 1006.0
20260504234510 75 17 0.0 0.0 0.00 0.00 0.00 55 1006.2
20260504233012 75 354 0.0 0.0 0.00 0.00 0.00 53 1006.2
20260504231510 76 4 0.0 0.0 0.00 0.00 0.00 53 1006.5
20260504230008 76 4 0.0 0.0 0.00 0.00 0.00 51 1006.7
20260504224506 77 60 0.0 0.0 0.00 0.00 0.00 51 1006.9
20260504223008 78 242 0.0 0.0 0.00 0.00 0.00 50 1006.9
20260504221507 77 345 0.0 0.0 0.00 0.00 0.00 50 1007.1
20260504220005 78 323 0.0 0.0 0.00 0.00 0.00 49 1007.1
20260504214506 79 33 0.0 0.0 0.00 0.00 0.00 48 1007.3
20260504213042 79 327 0.0 1.0 0.00 0.00 0.00 48 1007.5
20260504211539 78 359 0.0 0.0 0.00 0.00 0.00 48 1007.6
20260504210018 79 354 0.0 0.0 0.00 0.00 0.00 47 1007.8
20260504204516 79 22 0.0 1.0 0.00 0.00 0.00 47 1008.1
20260504203011 79 73 0.0 0.0 0.00 0.00 0.00 45 1008.4
20260504201507 79 52 0.0 0.0 0.00 0.00 0.00 46 1008.6
20260504200047 80 45 0.0 0.0 0.00 0.00 0.00 45 1008.9
20260504194549 79 35 0.0 1.0 0.00 0.00 0.00 46 1009.1
20260504181517 77 22 0.0 1.0 0.00 0.00 0.00 48 1010.3
20260504180008 76 43 0.0 1.0 0.00 0.00 0.00 48 1010.2
20260504174505 76 341 0.0 4.0 0.00 0.00 0.00 47 1010.6
20260504173004 76 326 0.0 1.0 0.00 0.00 0.00 49 1010.9
20260504171507 76 18 0.0 2.0 0.00 0.00 0.00 48 1011.1
20260504081558 56 359 0.0 0.0 0.00 0.00 0.00 42 1012.2
20260504050132 59 359 0.0 0.0 0.00 0.00 0.00 58 1013.3
20260504043029 60 359 0.0 0.0 0.00 0.00 0.00 61 1013.3
20260504041528 60 359 0.0 0.0 0.00 0.00 0.00 64 1013.4
20260504030027 62 359 0.0 0.0 0.00 0.00 0.00 68 1013.6
20260504024543 63 359 0.0 0.0 0.00 0.00 0.00 68 1013.6
20260504023026 64 359 0.0 0.0 0.00 0.00 0.00 68 1013.4